CW5624 Weather Reports


Display with metric or nautical units.
time (UTC)temp
F
wind
direction
speed
MPH
gust
MPH
rain 1hr
in
rain 24hr
in
rain mn
in
humidity
%
barometer
mb
20240525105928 57 171 0.0 2.0 0.00 0.00 0.00 67 1011.9
20240525104928 56 171 0.0 0.0 0.00 0.00 0.00 66 1011.7
20240525103928 56 171 0.0 0.0 0.00 0.00 0.00 64 1011.7
20240525102928 55 171 0.0 0.0 0.00 0.00 0.00 65 1011.6
20240525101928 55 171 0.0 0.0 0.00 0.00 0.00 66 1011.6
20240525100928 55 171 0.0 0.0 0.00 0.00 0.00 66 1011.3
20240525095928 55 171 0.0 0.0 0.00 0.00 0.00 67 1011.1
20240525094928 56 171 0.0 0.0 0.00 0.00 0.00 68 1011.2
20240525093928 56 171 0.0 1.0 0.00 0.00 0.00 68 1011.0
20240525092928 56 171 0.0 0.0 0.00 0.00 0.00 69 1011.0
20240525091928 57 171 0.0 0.0 0.00 0.00 0.00 69 1010.9
20240525090929 57 171 0.0 0.0 0.00 0.00 0.00 68 1010.9
20240525085929 58 171 0.0 1.0 0.00 0.00 0.00 67 1010.9
20240525084928 58 171 0.0 1.0 0.00 0.00 0.00 66 1010.7
20240525083928 59 171 0.0 0.0 0.00 0.00 0.00 66 1010.8
20240525082928 59 171 0.0 1.0 0.00 0.00 0.00 65 1010.9
20240525081928 59 171 0.0 2.0 0.00 0.00 0.00 65 1010.9
20240525080928 60 171 0.0 1.0 0.00 0.00 0.00 65 1011.0
20240525075928 60 171 0.0 1.0 0.00 0.00 0.00 64 1010.9
20240525074928 60 171 0.0 2.0 0.00 0.00 0.00 64 1010.9
20240525073929 60 171 0.0 2.0 0.00 0.00 0.00 63 1011.0
20240525072928 61 171 0.0 2.0 0.00 0.00 0.00 63 1011.0
20240525071928 61 289 0.0 1.0 0.00 0.00 0.00 62 1010.9
20240525070928 61 290 0.0 2.0 0.00 0.00 0.00 62 1010.9
20240525065930 61 158 0.0 3.0 0.00 0.00 0.00 63 1010.9
20240525064929 61 228 0.0 3.0 0.00 0.00 0.00 64 1011.0
20240525063928 61 228 0.0 0.0 0.00 0.00 0.00 65 1010.7
20240525062928 62 228 0.0 0.0 0.00 0.00 0.00 65 1010.5
20240525061928 62 228 0.0 2.0 0.00 0.00 0.00 65 1010.5
20240525060930 62 228 0.0 0.0 0.00 0.00 0.00 65 1010.3
20240525055928 63 228 0.0 0.0 0.00 0.00 0.00 64 1010.3
20240525054928 63 228 0.0 2.0 0.00 0.00 0.00 63 1010.2
20240525053928 64 228 0.0 0.0 0.00 0.00 0.00 62 1010.1
20240525052928 64 228 0.0 0.0 0.00 0.00 0.00 60 1009.9
20240525051928 65 228 0.0 0.0 0.00 0.00 0.00 59 1009.9
20240525050928 65 228 0.0 2.0 0.00 0.00 0.00 59 1009.9
20240525045928 66 228 0.0 2.0 0.00 0.00 0.00 58 1009.8
20240525044928 66 228 0.0 2.0 0.00 0.00 0.00 57 1009.9
20240525043928 67 228 0.0 2.0 0.00 0.00 0.00 56 1009.8
20240525042929 67 228 0.0 2.0 0.00 0.00 0.00 55 1009.5
20240525041928 68 228 2.0 3.0 0.00 0.00 0.00 55 1009.4
20240525040928 68 207 2.0 4.0 0.00 0.00 0.00 54 1009.2
20240525035929 69 290 0.0 2.0 0.00 0.00 0.00 54 1009.3
20240525034929 69 290 0.0 3.0 0.00 0.00 0.00 52 1009.0
20240525033928 70 290 0.0 1.0 0.00 0.00 0.00 51 1009.0
20240525032928 70 290 0.0 3.0 0.00 0.00 0.00 50 1008.8
20240525031928 71 327 0.0 4.0 0.00 0.00 0.00 48 1008.7
20240525030928 71 344 0.0 2.0 0.00 0.00 0.00 47 1008.6
20240525025928 72 9 0.0 3.0 0.00 0.00 0.00 46 1008.2
20240525024928 72 14 0.0 1.0 0.00 0.00 0.00 45 1008.4
20240525023928 72 279 1.0 4.0 0.00 0.00 0.00 45 1008.3
20240525022928 73 360 0.0 6.0 0.00 0.00 0.00 44 1008.2
20240525021928 73 237 0.0 3.0 0.00 0.00 0.00 43 1008.2
20240525020928 73 5 0.0 4.0 0.00 0.00 0.00 42 1008.2
20240525015928 73 26 1.0 7.0 0.00 0.00 0.00 42 1008.2
20240525014928 74 5 0.0 2.0 0.00 0.00 0.00 42 1008.1
20240525013928 74 5 0.0 2.0 0.00 0.00 0.00 41 1008.0
20240525012930 74 5 1.0 5.0 0.00 0.00 0.00 41 1007.9
20240525011928 74 241 0.0 3.0 0.00 0.00 0.00 40 1007.7
20240525010928 75 5 0.0 2.0 0.00 0.00 0.00 40 1007.5
20240525005928 76 9 0.0 5.0 0.00 0.00 0.00 39 1007.2
20240525004928 76 360 1.0 9.0 0.00 0.00 0.00 38 1007.1
20240525003928 76 344 2.0 7.0 0.00 0.00 0.00 37 1006.8
20240525002930 77 223 0.0 9.0 0.00 0.00 0.00 37 1006.7
20240525001929 77 14 1.0 5.0 0.00 0.00 0.00 38 1006.6
20240525000929 77 66 4.0 6.0 0.00 0.00 0.00 39 1006.5
20240524235929 78 26 3.0 3.0 0.00 0.00 0.00 40 1006.4
20240524234929 78 300 0.0 4.0 0.00 0.00 0.00 40 1006.3
20240524233929 79 360 2.0 5.0 0.00 0.00 0.00 39 1006.2
20240524232929 79 34 0.0 4.0 0.00 0.00 0.00 38 1006.0
20240524231929 80 10 1.0 5.0 0.00 0.00 0.00 38 1005.9
20240524230929 80 360 3.0 4.0 0.00 0.00 0.00 38 1005.9
20240524225929 81 17 0.0 3.0 0.00 0.00 0.00 38 1005.8
20240524224929 81 355 0.0 7.0 0.00 0.00 0.00 38 1005.8
20240524223929 81 355 1.0 10.0 0.00 0.00 0.00 36 1005.7
20240524222929 82 355 2.0 6.0 0.00 0.00 0.00 38 1005.5
20240524221929 82 315 2.0 6.0 0.00 0.00 0.00 37 1005.3
20240524220929 82 23 1.0 4.0 0.00 0.00 0.00 38 1005.3
20240524215930 82 17 2.0 5.0 0.00 0.00 0.00 37 1005.3
20240524214929 82 292 0.0 6.0 0.00 0.00 0.00 37 1005.2
20240524213930 82 26 1.0 4.0 0.00 0.00 0.00 38 1005.3
20240524212929 82 246 0.0 10.0 0.00 0.00 0.00 37 1005.3
20240524211929 83 260 2.0 6.0 0.00 0.00 0.00 36 1005.2
20240524210929 83 268 1.0 7.0 0.00 0.00 0.00 35 1005.2
20240524205929 83 25 0.0 5.0 0.00 0.00 0.00 36 1005.1
20240524204929 83 241 3.0 6.0 0.00 0.00 0.00 36 1005.2
20240524203931 84 355 2.0 7.0 0.00 0.00 0.00 36 1005.1
20240524202929 84 189 1.0 5.0 0.00 0.00 0.00 35 1005.0
20240524201929 84 217 0.0 11.0 0.00 0.00 0.00 34 1004.9
20240524200929 85 25 0.0 6.0 0.00 0.00 0.00 34 1005.0
20240524195929 85 26 2.0 10.0 0.00 0.00 0.00 34 1005.1
20240524194930 85 316 0.0 7.0 0.00 0.00 0.00 35 1005.1
20240524193931 85 239 0.0 10.0 0.00 0.00 0.00 35 1005.1
20240524192929 86 5 1.0 4.0 0.00 0.00 0.00 34 1005.3
20240524191929 86 70 1.0 4.0 0.00 0.00 0.00 33 1005.3
20240524190929 86 40 3.0 3.0 0.00 0.00 0.00 33 1005.4
20240524185929 85 10 2.0 3.0 0.00 0.00 0.00 35 1005.4
20240524184929 85 43 4.0 6.0 0.00 0.00 0.00 34 1005.5
20240524183929 85 355 1.0 4.0 0.00 0.00 0.00 35 1005.7
20240524182929 84 248 3.0 8.0 0.00 0.00 0.00 34 1006.0
20240524181929 84 344 0.0 6.0 0.00 0.00 0.00 35 1006.1
20240524180929 84 44 1.0 7.0 0.00 0.00 0.00 35 1006.1
20240524175930 84 194 2.0 6.0 0.00 0.00 0.00 35 1006.3
20240524174929 83 242 2.0 8.0 0.00 0.00 0.00 33 1006.3
20240524173929 84 244 1.0 11.0 0.00 0.00 0.00 32 1006.5
20240524172929 84 20 1.0 6.0 0.00 0.00 0.00 33 1006.6
20240524171929 84 242 2.0 5.0 0.00 0.00 0.00 32 1006.8
20240524170929 83 355 1.0 6.0 0.00 0.00 0.00 34 1006.9
20240524165930 83 248 1.0 6.0 0.00 0.00 0.00 32 1007.0
20240524164929 83 252 1.0 8.0 0.00 0.00 0.00 34 1007.1
20240524163930 83 91 2.0 5.0 0.00 0.00 0.00 36 1007.0
20240524162929 82 5 0.0 9.0 0.00 0.00 0.00 37 1007.0
20240524161929 82 290 1.0 6.0 0.00 0.00 0.00 36 1007.3
20240524160929 82 34 4.0 7.0 0.00 0.00 0.00 37 1007.5
20240524155929 81 13 0.0 4.0 0.00 0.00 0.00 39 1007.4
20240524154931 81 36 4.0 6.0 0.00 0.00 0.00 38 1007.6
20240524153929 80 329 0.0 6.0 0.00 0.00 0.00 38 1007.7
20240524152930 80 231 2.0 5.0 0.00 0.00 0.00 40 1007.8
20240524151929 80 330 1.0 6.0 0.00 0.00 0.00 42 1007.9
20240524150929 79 17 0.0 4.0 0.00 0.00 0.00 44 1008.1
20240524145933 79 149 0.0 3.0 0.00 0.00 0.00 45 1008.2
20240524144929 78 34 0.0 4.0 0.00 0.00 0.00 46 1008.4
20240524143929 78 332 0.0 4.0 0.00 0.00 0.00 48 1008.6
20240524142929 78 288 1.0 3.0 0.00 0.00 0.00 49 1008.6
20240524141929 78 313 0.0 4.0 0.00 0.00 0.00 50 1008.7
20240524140929 77 344 0.0 2.0 0.00 0.00 0.00 50 1008.9
20240524135929 76 25 0.0 3.0 0.00 0.00 0.00 52 1009.0
20240524134929 76 36 2.0 2.0 0.00 0.00 0.00 53 1009.1
20240524133930 75 39 1.0 3.0 0.00 0.00 0.00 55 1009.3
20240524132930 74 255 0.0 2.0 0.00 0.00 0.00 55 1009.3
20240524131929 74 5 0.0 1.0 0.00 0.00 0.00 58 1009.4
20240524130929 73 293 1.0 3.0 0.00 0.00 0.00 60 1009.4
20240524125931 72 173 0.0 2.0 0.00 0.00 0.00 62 1009.6
20240524124930 71 57 0.0 2.0 0.00 0.00 0.00 62 1009.7
20240524123930 70 22 1.0 2.0 0.00 0.00 0.00 65 1009.9
20240524122931 68 22 0.0 1.0 0.00 0.00 0.00 65 1010.0
20240524121930 67 22 0.0 1.0 0.00 0.00 0.00 65 1010.1
20240524120930 65 22 0.0 4.0 0.00 0.00 0.00 63 1010.1
20240524115931 63 22 0.0 3.0 0.00 0.00 0.00 45 1010.1
20240524114930 60 22 0.0 0.0 0.00 0.00 0.00 100 1010.0
20240524113930 58 22 0.0 0.0 0.00 0.00 0.00 100 1010.1
20240524112930 57 22 0.0 1.0 0.00 0.00 0.00 100 1010.1
20240524111930 57 22 0.0 0.0 0.00 0.00 0.00 100 1010.2
20240524110930 56 22 0.0 0.0 0.00 0.00 0.00 100 1010.1